Location: Bosdarros
(43.2167°N, 0.3667°W)
Time: 15:03:52
(UTC+00:00)

COSMOS 2487 - Pass Details

Date: 22 April 2021
Orbit: 432 x 434 km, 74.7° (Epoch: 12 May)

Event Time Altitude Azimuth Distance (km) Brightness Sun altitude
Rises 19:20:40 0° 215° (SW) 2,404 6.3 -5.6°
Reaches altitude 10° 19:22:49 10° 224° (SW) 1,541 5.4 -6.0°
Maximum altitude 19:26:00 37° 293° (WNW) 692 4.2 -6.5°
Drops below altitude 10° 19:29:12 10° 4° (N) 1,554 5.4 -7.0°
Sets 19:31:23 0° 12° (NNE) 2,427 6.3 -7.4°
